Location: Cortada Guamacho
(10.5667°N, 67.0833°W)
Time: 14:38:38
(UTC+00:00)

Gbstr 26 Del rocket - Pass Details

Date: 08 December 2021
Orbit: 493 x 1262 km, 51.8° (Epoch: 19 January)

Event Time Altitude Azimuth Distance (km) Brightness Sun altitude
Rises 22:39:06 0° 222° (SW) 3,980 8.5 -8.3°
Reaches altitude 10° 22:42:05 10° 224° (SW) 2,921 7.7 -9.0°
Maximum altitude 22:49:00 65° 305° (NW) 1,020 4.3 -10.6°
Drops below altitude 10° 22:54:36 10° 27° (NNE) 2,375 5.6 -11.8°
Enters shadow 22:55:06 - 28° (NNE) 2,556 5.8 -12.0°
